Location: El Águila
(10.4167°N, 66.7167°W)
Time: 23:05:42
(UTC+00:00)

SWIFT - Pass Details

Date: 10 April 2023
Orbit: 527 x 541 km, 20.6° (Epoch: 28 May)

Event Time Altitude Azimuth Distance (km) Brightness Sun altitude
Rises 23:02:59 0° 298° (WNW) 2,644 7.4 -7.0°
Reaches altitude 10° 23:05:42 10° 316° (NW) 1,753 5.8 -7.7°
Maximum altitude 23:08:44 20° 4° (N) 1,245 4.2 -8.4°
Drops below altitude 10° 23:11:46 10° 53° (NE) 1,750 4.5 -9.1°
Enters shadow 23:12:45 - 61° (ENE) 2,049 4.8 -9.4°
